This is the latest recevied weather packets stored in our database for station/object SQ5LTL-2. If no packets are shown the sender has not sent any weather packets the latest 10 day(s).
| Time | Temp. | Humidity | Pressure | Rain* | Wind** | Luminosity | Snow |
|---|---|---|---|---|---|---|---|
| 1777734627 | 23.33° C | 35% | 1021.9 hPa | 0 mm | - | 182 W/m² | - |
| 1777734326 | 23.33° C | 35% | 1022 hPa | 0 mm | - | 193 W/m² | - |
| 1777734024 | 22.78° C | 34% | 1022.2 hPa | 0 mm | - | 203 W/m² | - |
| 1777733723 | 22.78° C | 36% | 1022.2 hPa | 0 mm | - | 212 W/m² | - |
| 1777733421 | 22.78° C | 35% | 1022.2 hPa | 0 mm | - | 219 W/m² | - |
| 1777733121 | 22.78° C | 35% | 1022.2 hPa | 0 mm | - | 227 W/m² | - |
| 1777732820 | 23.33° C | 35% | 1022.4 hPa | 0 mm | - | 240 W/m² | - |
| 1777732517 | 23.33° C | 34% | 1022.3 hPa | 0 mm | - | 247 W/m² | - |
| 1777732216 | 23.33° C | 35% | 1022.4 hPa | 0 mm | - | 252 W/m² | - |
| 1777731936 | 22.78° C | 36% | 1022.5 hPa | 0 mm | - | 257 W/m² | - |
| 1777731632 | 22.78° C | 36% | 1022.5 hPa | 0 mm | - | 267 W/m² | - |
| 1777731332 | 22.78° C | 35% | 1022.5 hPa | 0 mm | - | 277 W/m² | - |
| 1777731030 | 22.78° C | 35% | 1022.5 hPa | 0 mm | - | 287 W/m² | - |
| 1777730730 | 22.78° C | 36% | 1022.6 hPa | 0 mm | - | 293 W/m² | - |
| 1777730427 | 22.78° C | 35% | 1022.7 hPa | 0 mm | - | 302 W/m² | - |
| 1777730125 | 22.78° C | 35% | 1022.7 hPa | 0 mm | - | 313 W/m² | - |
| 1777729824 | 23.33° C | 36% | 1022.7 hPa | 0 mm | - | 322 W/m² | - |
| 1777729523 | 22.78° C | 35% | 1022.8 hPa | 0 mm | - | 335 W/m² | - |
| 1777729222 | 22.78° C | 36% | 1022.9 hPa | 0 mm | - | 327 W/m² | - |
| 1777728921 | 23.33° C | 38% | 1022.9 hPa | 0 mm | - | 323 W/m² | - |
| 1777728618 | 22.78° C | 36% | 1023 hPa | 0 mm | - | 362 W/m² | - |
| 1777728317 | 22.78° C | 37% | 1023 hPa | 0 mm | - | 370 W/m² | - |
| 1777728036 | 22.78° C | 36% | 1023.2 hPa | 0 mm | - | 369 W/m² | - |
| 1777727734 | 22.78° C | 37% | 1023.1 hPa | 0 mm | - | 380 W/m² | - |
| 1777727432 | 22.78° C | 38% | 1023.3 hPa | 0 mm | - | 391 W/m² | - |
* Rain latest hour (hover to see other rain measurements)
** Current wind speed in m/s (hover to see current wind gust speed)